GW4000 Weather Reports


time (UTC)temp
C
wind
direction
speed
KPH
gust
KPH
rain 1hr
cm
rain 24hr
cm
rain mn
cm
humidity
%
barometer
mb
20260906110004 21 35 0.0 0.0 0.00 0.20 0.03 97 1011.4
20260906104506 21 35 0.0 3.2 0.00 0.20 0.03 97 1011.2
20260906103005 21 35 0.0 3.2 0.00 0.20 0.03 97 1011.0
20260906101505 21 35 0.0 0.0 0.00 0.20 0.03 97 1011.1
20260906100006 21 35 0.0 3.2 0.00 0.20 0.03 97 1010.9
20260906094507 21 32 0.0 0.0 0.00 0.20 0.03 97 1010.8
20260906093005 21 32 0.0 0.0 0.03 0.20 0.03 97 1010.8
20260906091507 21 32 0.0 0.0 0.03 0.20 0.03 97 1010.7
20260906090007 21 32 0.0 0.0 0.03 0.20 0.03 97 1010.7
20260906084507 21 32 0.0 0.0 0.03 0.20 0.03 97 1010.7
20260906083009 21 32 0.0 0.0 0.00 0.18 0.00 97 1011.0
20260906081506 21 32 0.0 0.0 0.00 0.18 0.00 97 1011.0
20260906080008 21 64 0.0 0.0 0.00 0.18 0.00 97 1010.9
20260906074510 21 64 0.0 0.0 0.00 0.18 0.00 97 1010.9
20260906073017 21 64 0.0 0.0 0.00 0.18 0.00 97 1011.1
20260906071512 21 64 0.0 3.2 0.00 0.18 0.00 97 1011.1
20260906070012 21 64 0.0 3.2 0.00 0.18 0.00 96 1010.8
20260906064510 21 64 0.0 3.2 0.00 0.18 0.00 96 1011.0
20260906063013 21 64 0.0 0.0 0.00 0.18 0.00 97 1011.0
20260906061512 21 64 0.0 3.2 0.00 0.18 0.00 96 1011.3
20260906060012 21 64 1.6 3.2 0.00 0.18 0.00 96 1011.5
20260906054515 21 49 0.0 3.2 0.00 0.18 0.00 96 1011.5
20260906053012 21 49 0.0 3.2 0.00 0.18 0.00 96 1011.4
20260906051514 21 49 0.0 0.0 0.00 0.18 0.00 96 1011.5
20260906050018 21 49 0.0 0.0 0.00 0.18 0.00 96 1011.7
20260906044508 21 49 0.0 3.2 0.00 0.18 0.00 96 1011.9
20260906043012 21 115 0.0 3.2 0.00 0.18 0.00 96 1012.1
20260906041522 21 115 0.0 3.2 0.00 0.18 0.00 95 1012.0
20260906040020 22 72 1.6 4.8 0.00 0.18 0.00 95 1012.2
20260906034520 22 55 0.0 0.0 0.00 0.18 0.18 95 1012.1
20260906033005 22 101 0.0 0.0 0.00 0.18 0.18 95 1012.4
20260906031513 22 39 0.0 0.0 0.00 0.18 0.18 95 1012.2
20260906030017 22 28 0.0 3.2 0.00 0.18 0.18 94 1012.5
20260906024523 22 97 0.0 8.0 0.00 0.18 0.18 94 1012.3
20260906023024 22 83 6.4 9.7 0.00 0.18 0.18 93 1012.1
20260906021521 22 243 0.0 3.2 0.00 0.18 0.18 93 1011.4
20260906020014 22 316 3.2 4.8 0.00 0.18 0.18 94 1011.5
20260906014522 22 30 1.6 3.2 0.00 0.18 0.18 93 1010.9
20260906013029 22 42 1.6 3.2 0.00 0.18 0.18 92 1010.8
20260906011523 23 300 0.0 4.8 0.00 0.18 0.18 91 1010.9
20260906010026 22 279 1.6 6.4 0.15 0.18 0.18 92 1010.5
20260906004526 22 249 6.4 11.3 0.18 0.18 0.18 92 1009.8
20260906003024 23 264 0.0 8.0 0.18 0.18 0.18 90 1010.8
20260906001527 23 188 1.6 9.7 0.18 0.18 0.18 87 1010.8
20260906000025 25 271 6.4 32.2 0.03 0.03 0.03 78 1012.3
20260905234527 28 64 12.9 25.7 0.00 0.00 0.00 64 1013.4
20260905233034 30 36 12.9 32.2 0.00 0.00 0.00 60 1012.7
20260905231530 31 121 0.0 0.0 0.00 0.00 0.00 67 1011.5
20260905230027 31 121 0.0 3.2 0.00 0.00 0.00 66 1011.5
20260905224530 33 214 0.0 3.2 0.00 0.00 0.00 61 1010.9
20260905223027 33 214 0.0 4.8 0.00 0.00 0.00 56 1010.7
20260905221532 33 248 1.6 8.0 0.00 0.00 0.00 54 1010.8
20260905220007 34 228 4.8 9.7 0.00 0.00 0.00 54 1010.6
20260905214505 34 233 4.8 11.3 0.00 0.00 0.00 54 1010.1
20260905213014 34 227 4.8 8.0 0.00 0.00 0.00 54 1010.2
20260905211528 34 205 4.8 12.9 0.00 0.00 0.00 54 1010.3
20260905210023 35 54 4.8 8.0 0.00 0.00 0.00 51 1010.3
20260905204506 34 234 4.8 9.7 0.00 0.00 0.00 55 1010.3
20260905203030 34 276 3.2 8.0 0.00 0.00 0.00 54 1010.2
20260905201515 35 219 4.8 8.0 0.00 0.00 0.00 53 1010.2
20260905200024 34 282 1.6 4.8 0.00 0.00 0.00 51 1010.3
20260905194527 34 281 1.6 8.0 0.00 0.00 0.00 57 1010.5
20260905193008 34 227 3.2 11.3 0.00 0.00 0.00 56 1010.8
20260905191512 34 332 1.6 9.7 0.00 0.00 0.00 56 1011.1
20260905190018 34 205 3.2 8.0 0.00 0.00 0.00 57 1011.2
20260905184524 34 274 1.6 4.8 0.00 0.00 0.00 58 1011.5
20260905183028 33 323 4.8 11.3 0.00 0.00 0.00 58 1011.7
20260905181508 33 276 3.2 6.4 0.00 0.00 0.00 61 1012.0
20260905180016 33 281 3.2 8.0 0.00 0.00 0.00 63 1012.4
20260905174523 32 45 1.6 11.3 0.00 0.00 0.00 64 1012.7
20260905173027 32 231 4.8 12.9 0.00 0.00 0.00 66 1012.7
20260905171535 31 359 0.0 12.9 0.00 0.00 0.00 68 1012.8
20260905170014 31 6 3.2 9.7 0.00 0.00 0.00 68 1013.2
20260905164524 31 286 1.6 9.7 0.00 0.00 0.00 71 1013.5
20260905163024 31 313 3.2 11.3 0.00 0.00 0.00 73 1013.8
20260905161504 30 278 4.8 8.0 0.00 0.00 0.00 74 1014.0
20260905160022 30 282 1.6 6.4 0.00 0.00 0.00 77 1014.2
20260905154516 28 276 1.6 9.7 0.00 0.00 0.00 79 1014.4
20260905153018 28 351 3.2 6.4 0.00 0.00 0.00 81 1014.7
20260905151531 27 277 1.6 9.7 0.00 0.00 0.00 83 1014.6
20260905150008 27 82 3.2 6.4 0.00 0.00 0.00 85 1014.6
20260905144533 27 300 1.6 6.4 0.00 0.00 0.00 87 1014.6
20260905143021 26 297 4.8 8.0 0.00 0.00 0.00 89 1014.7
20260905141524 26 1 3.2 8.0 0.00 0.00 0.00 90 1014.9
20260905140028 26 308 3.2 8.0 0.00 0.00 0.00 91 1014.9
20260905134510 26 33 0.0 8.0 0.00 0.00 0.00 92 1014.8
20260905133013 25 299 3.2 9.7 0.00 0.00 0.00 93 1014.9
20260905131523 25 304 1.6 6.4 0.00 0.00 0.00 94 1014.9
20260905130027 24 360 0.0 6.4 0.00 0.00 0.00 96 1014.9
20260905124530 24 348 3.2 6.4 0.00 0.00 0.00 97 1014.9
20260905123015 24 330 3.2 4.8 0.00 0.00 0.00 97 1014.7
20260905121520 23 304 0.0 4.8 0.00 0.00 0.00 98 1014.7
20260905120027 23 335 0.0 3.2 0.00 0.00 0.00 98 1014.6
20260905114531 23 309 0.0 0.0 0.00 0.00 0.00 97 1014.6
20260905113031 23 290 0.0 0.0 0.00 0.00 0.00 97 1014.4
20260905111518 23 296 0.0 0.0 0.00 0.00 0.00 97 1014.3